This is the latest recevied weather packets stored in our database for station/object OE-11051. If no packets are shown the sender has not sent any weather packets the latest 10 day(s).
| Time | Temp. | Humidity | Pressure | Rain* | Wind** | Luminosity | Snow |
|---|---|---|---|---|---|---|---|
| 1787862907 | 24.44° C | 59% | 1012.3 hPa | 0 mm | - | 0 W/m² | - |
| 1787862307 | 24.44° C | 59% | 1012.2 hPa | 0 mm | - | 0 W/m² | - |
| 1787861480 | 24.44° C | 59% | 1012.2 hPa | 0 mm | - | 0 W/m² | - |
| 1787861107 | 25° C | 59% | 1012 hPa | 0 mm | - | 0 W/m² | - |
| 1787860507 | 25° C | 58% | 1012.1 hPa | 0 mm | - | 0 W/m² | - |
| 1787859681 | 25° C | 58% | 1012 hPa | 0 mm | - | 0 W/m² | - |
| 1787859307 | 25° C | 58% | 1012.1 hPa | 0 mm | - | 0 W/m² | - |
| 1787858707 | 25.56° C | 58% | 1011.9 hPa | 0 mm | - | 0 W/m² | - |
| 1787857880 | 25.56° C | 57% | 1011.9 hPa | 0 mm | - | 0 W/m² | - |
| 1787857507 | 25.56° C | 56% | 1011.9 hPa | 0 mm | - | 0 W/m² | - |
| 1787856907 | 26.11° C | 55% | 1012 hPa | 0 mm | - | 0 W/m² | - |
| 1787856080 | 26.11° C | 54% | 1011.9 hPa | 0 mm | - | 0 W/m² | - |
| 1787855706 | 26.67° C | 54% | 1011.9 hPa | 0 mm | - | 0 W/m² | - |
| 1787855107 | 26.67° C | 53% | 1011.9 hPa | 0 mm | - | 0 W/m² | - |
| 1787854280 | 26.67° C | 52% | 1011.7 hPa | 0 mm | - | 0 W/m² | - |
| 1787853907 | 27.22° C | 51% | 1011.7 hPa | 0 mm | - | 6 W/m² | - |
| 1787852719 | 27.78° C | 49% | 1011.5 hPa | 0 mm | - | 13 W/m² | - |
| 1787852106 | 27.78° C | 48% | 1011.5 hPa | 0 mm | - | 26 W/m² | - |
| 1787851507 | 27.78° C | 48% | 1011.4 hPa | 0 mm | - | 39 W/m² | - |
| 1787850680 | 28.33° C | 48% | 1011.5 hPa | 0 mm | - | 58 W/m² | - |
| 1787849707 | 28.33° C | 47% | 1011.5 hPa | 0 mm | - | 64 W/m² | - |
| 1787848880 | 28.33° C | 47% | 1011.6 hPa | 0 mm | - | 58 W/m² | - |
| 1787848507 | 28.33° C | 47% | 1011.6 hPa | 0 mm | - | 64 W/m² | - |
| 1787847907 | 28.89° C | 46% | 1011.6 hPa | 0 mm | - | 90 W/m² | - |
| 1787847080 | 28.89° C | 46% | 1011.7 hPa | 0 mm | - | 110 W/m² | - |
* Rain latest hour (hover to see other rain measurements)
** Current wind speed in m/s (hover to see current wind gust speed)